Location: Newark
(42.7133°N, 87.7910°W)
Time: 17:51:49
(UTC+00:00)

Vanguard 1 - Visible Passes

Search period start: 21 October 2019 00:00
Search period end: 31 October 2019 00:00
Orbit: 653 x 3830 km, 34.2° (Epoch: 20 October)

Date Brightness Start Highest point End Pass type
(mag) Time Alt. Az. Time Alt. Az. Time Alt. Az.
21 Oct 11.6 00:59:42 10° SW 01:07:40 50° SSE 01:12:53 35° ESE visible
21 Oct 12.2 03:18:47 10° W 03:25:34 45° SW 03:25:34 45° SW visible
21 Oct13.706:17:16SE06:17:16SE05:38:15Wvisible
21 Oct 14.0 08:30:00 12° S 08:30:00 12° S 08:31:55 10° S visible
22 Oct 11.5 01:20:20 10° WSW 01:28:33 55° SSE 01:32:24 43° ESE visible
22 Oct 12.5 03:39:43 10° W 03:45:06 36° WSW 03:45:06 36° WSW visible
22 Oct13.906:37:15SSE06:37:15SSE05:57:47Wvisible
22 Oct 11.6 23:23:11 10° SSW 23:29:03 33° SSE 23:38:37 10° E visible
23 Oct 11.5 01:41:04 10° WSW 01:49:32 57° S 01:51:56 51° SE visible
23 Oct 12.8 04:00:42 10° W 04:04:38 27° WSW 04:04:38 27° WSW visible
23 Oct 11.4 23:43:30 10° SW 23:49:41 39° SSE 23:58:47 13° E visible
24 Oct 11.6 02:01:51 10° WSW 02:10:35 57° S 02:11:28 56° SSE visible
24 Oct 13.1 04:21:47 10° W 04:24:10 19° W 04:24:10 19° W visible
25 Oct 11.3 00:03:59 10° SW 00:10:25 45° SSE 00:18:20 19° E visible
25 Oct 11.7 02:22:42 10° W 02:31:01 54° SSW 02:31:01 54° SSW visible
25 Oct 13.3 04:42:59 10° W 04:43:42 13° W 04:43:42 13° W visible
26 Oct 11.3 00:24:36 10° WSW 00:31:15 49° SSE 00:37:54 25° ESE visible
26 Oct 11.9 02:43:35 10° W 02:50:35 47° SW 02:50:35 47° SW visible
27 Oct 11.3 00:45:18 10° WSW 00:52:10 52° S 00:57:29 31° ESE visible
27 Oct 12.2 03:04:33 10° W 03:10:10 37° SW 03:10:10 37° SW visible
28 Oct 11.3 01:06:05 10° WSW 01:13:08 51° S 01:17:06 37° SE visible
28 Oct 12.5 03:25:37 10° W 03:29:47 28° WSW 03:29:47 28° WSW visible
28 Oct 11.1 23:08:24 10° SW 23:13:39 39° SSE 23:22:10 10° E visible
29 Oct 11.5 01:26:54 10° WSW 01:34:08 49° S 01:36:44 42° SSE visible
29 Oct 12.9 03:46:50 10° W 03:49:26 20° WSW 03:49:26 20° WSW visible
29 Oct 11.1 23:29:01 10° WSW 23:34:27 43° S 23:43:30 10° ESE visible
30 Oct 11.6 01:47:47 10° W 01:55:11 45° S 01:56:25 43° S visible
30 Oct 13.2 04:08:17 10° WSW 04:09:07 13° WSW 04:09:07 13° WSW visible
